Regional Weather Roundup
Issued by NWS Boston, MA

Current Version | Previous Version | Text Only | Print | Product List | Glossary On
Versions: 1 2 3 4 5 6 7 8 9 10 11 12 13 14 15 16 17 18 19 20 21 22 23 24 25 26 27 28 29 30 31 32 33 34 35 36 37 38 39 40 41 42 43 44 45 46 47 48 49 50
000 ASUS41 KBOX 181010 RWRBOX REGIONAL WEATHER ROUNDUP NATIONAL WEATHER SERVICE BOSTON/NORTON MA 600 AM EDT SAT AUG 18 2018 NOTE: "FAIR" INDICATES FEW OR NO CLOUDS BELOW 12,000 FEET WITH NO SIGNIFICANT WEATHER AND/OR OBSTRUCTIONS TO VISIBILITY. MAZALL-181100- EASTERN MASSACHUSETTS CITY SKY/WX TMP DP RH WIND PRES REMARKS BOSTON CLOUDY 76 71 85 SW12 29.82S BEVERLY FAIR 74 72 93 SW8 29.80S LAWRENCE FAIR 75 70 84 S6 29.82F BEDFORD FAIR 72 70 93 SW6 29.81S BLUE HILL N/A 71 71 100 SW12G22 29.84S NORWOOD FAIR 76 72 87 SW6 29.82S MARSHFIELD FAIR 77 72 83 SW7G13 29.82S PLYMOUTH FAIR 75 71 87 SW9 29.84S TAUNTON FAIR 75 71 87 VRB7 29.83S NEW BEDFORD FAIR 73 73 100 SW7 29.83S $$ MAZALL-181100- CAPE COD AND THE ISLANDS CITY SKY/WX TMP DP RH WIND PRES REMARKS FALMOUTH DRIZZLE 73 73 100 SW10 29.85F HYANNIS RAIN 77 74 90 S9 29.83F FOG CHATHAM LGT RAIN 74 73 97 SW9G18 29.86F PROVINCETOWN FAIR 74 71 91 SW13 29.84S NANTUCKET LGT RAIN 71 71 100 SW14 29.88F MARTHAS VNYRD FAIR 73 72 96 SW10 29.85F $$ MAZALL-181100- CENTRAL AND WESTERN MASSACHUSETTS CITY SKY/WX TMP DP RH WIND PRES REMARKS WORCESTER CLOUDY 70 69 97 SW12 29.86S FITCHBURG FAIR 73 69 87 CALM 29.83S ORANGE FAIR 73 70 90 S8 29.85S SPRINGFIELD CLOUDY 71 70 95 S6 29.84S WESTFIELD MOCLDY 71 71 100 S6 29.85R NORTH ADAMS CLOUDY 71 69 93 CALM 29.85R PITTSFIELD CLOUDY 71 68 90 SW6 29.87S $$ RIZALL-181100- RHODE ISLAND CITY SKY/WX TMP DP RH WIND PRES REMARKS PROVIDENCE CLOUDY 73 71 93 SW3 29.85S NEWPORT FAIR 73 70 90 SW5 29.85S BLOCK ISLAND FAIR 72 71 97 SW10 29.85F SMITHFIELD MOCLDY 72 70 93 SW5 29.85F WESTERLY CLOUDY 74 72 93 SW6 29.85F $$ CTZALL-181100- CONNECTICUT CITY SKY/WX TMP DP RH WIND PRES REMARKS BRADLEY INTL LGT RAIN 72 71 97 S8 29.84S HARTFORD MOCLDY 73 71 93 S3 29.84S BRIDGEPORT LGT RAIN 75 72 90 W6 29.86S DANBURY MOCLDY 72 71 97 W6 29.88F GROTON LGT RAIN 73 71 93 SW5 29.84F NEW HAVEN CLOUDY 76 73 91 W6 29.86S CHESTER MOCLDY 73 73 100 VRB6 29.87S MERIDEN FAIR 72 71 97 S3 29.86S WILLIMANTIC MOCLDY 73 72 96 CALM 29.85F OXFORD CLOUDY 70 70 100 SW3 29.89F $$ MEZ002-015-021-024-NHZ003-005-008-011-012-014-VTZ005-008-181100- NORTHERN NEW ENGLAND CITY SKY/WX TMP DP RH WIND PRES REMARKS PORTLAND ME CLOUDY 72 71 97 SW8 29.77F BANGOR ME CLOUDY 70 69 97 S7 29.77S FOG CONCORD NH LGT RAIN 72 70 93 CALM 29.80R MANCHESTER NH LGT RAIN 73 71 93 SW3 29.78S NASHUA NH MOCLDY 72 72 100 CALM 29.81S PORTSMOUTH NH CLOUDY 72 71 96 SW3 29.78S JAFFREY NH CLOUDY 72 71 97 S7 29.86S KEENE NH LGT RAIN N/A N/A N/A CALM 29.83R BURLINGTON VT LGT RAIN 66 63 90 N9 29.85R MT. WASHINGTON LGT RAIN 55 55 100 W38 N/A VSB 0 $$ NYZ052-076-181100- EASTERN NEW YORK CITY SKY/WX TMP DP RH WIND PRES REMARKS ALBANY LGT RAIN 73 70 90 S8 29.84R FOG NEW YORK CITY MOCLDY 78 71 79 SW5 29.87S $$ ANZALL-181100- MARINE OBSERVATIONS STATION/POSITION TIME TEMP WIND PRES VSBY WAVE AIR SEA DIR/SP/G HT/PER (UTC) (F) (DEG/KT/KT) (MB) (MI) (FT/S) BOSTON BUOY 0950 72 69 190/ 8/ 12 1009.0R 1/ 3 BUZZARDS BAY 0900 72 200/ 17/ 18 1011.5F NANTUCKET SOUND 0950 76 77 220/ 12/ 17 1010.5F 2/ 3 MASS BAY-STELLWA 0904 73 71 230/ 8/ 10 1007.8F 1 7/8 2/ 4 ISLE OF SHOALS 0900 71 210/ 12/ 13 1008.4F S OF BLOCK IS 0943 77 N/A 3/ 5 $$ ......................KEY......................... SKY/WX - SKY CONDITION/PRESENT WEATHER TMP - TEMPERATURE IN FAHRENHEIT DWPT - DEWPOINT IN FAHRENHEIT RH - RELATIVE HUMIDITY IN PERCENT WIND - DIRECTION AND SPEED IN MPH PRES - MEAN SEA LEVEL PRESSURE IN INCHES OF HG WCI - WIND CHILL INDEX VSB - VISIBILITY IN MILES HX - HEAT INDEX TC - TEMPERATURE IN CELSIUS VRB - VARIABLE WIND DIRECTION N/A - NOT AVAILABLE

USA.gov is the U.S. government's official web portal to all federal, state and local government web resources and services.